Location: Riverside Cemetery
(38.3047°N, 99.7773°W)
Time: 07:39:25
(UTC+00:00)

Cosmos 1898 Rocket - Pass Details

Date: 19 September 2020
Orbit: 753 x 784 km, 74.0° (Epoch: 22 October)

Event Time Altitude Azimuth Distance (km) Brightness Sun altitude
Rises 01:02:08 0° 194° (SSW) 3,191 6.8 -4.9°
Reaches altitude 10° 01:04:29 10° 194° (SSW) 2,269 6.1 -5.3°
Maximum altitude 01:09:38 83° 106° (ESE) 764 3.5 -6.3°
Drops below altitude 10° 01:14:49 10° 20° (NNE) 2,285 5.8 -7.4°
Sets 01:17:11 0° 20° (NNE) 3,216 6.6 -7.8°
